Flag for Austria Weather for the Past 2 Weeks in Saalfelden am Steinernen Meer, Salzburg, Austria

Now
37 °F

Passing clouds.


Feels Like: 31 °F
Forecast: 30 / 49 °F
Wind: 9 mph from Southeast

Location: Salzburg-Flughafen

Current Time: Feb 5, 2016 at 11:46:04 PM

Latest Report: Feb 5, 2016 at 10:50 PM


Visibility: N/A

Pressure: 30.30 "Hg (27.66 "Hg at 738m altitude)

Humidity: 87%

Dew point: 34 °F

Location of Saalfelden am Steinernen MeerLocation

Historic Weather in Saalfelden am Steinernen Meer — Graph

°F

Saalfelden am Steinernen Meer Temperature Yesterday

Maximum temperature yesterday: 39 °F (at 1:20 PM)
Minimum temperature yesterday: 32 °F (at 7:50 PM)
Average temperature yesterday: 36 °F

High & Low Weather Summary for the Past Weeks

 TemperatureHumidityPressure
High59 °F (Feb 1, 1:50 PM)100% (Jan 21, 10:20 PM)30.63 "Hg (Jan 21, 10:20 PM)
Low7 °F (Jan 22, 6:20 AM)54% (Jan 27, 2:20 PM)29.89 "Hg (Jan 30, 8:20 PM)
Average38 °F85%30.28 "Hg
* Reported Jan 21 10:20 PM — Feb 5 10:20 PM, Saalfelden am Steinernen Meer, Weather by CustomWeather, © 2016

Note: Actual official high and low records may vary slightly from our data, if they occured in-between our weather recording intervals... More about our weather records

Advertising

Saalfelden am Steinernen Meer Weather History for the Previous 24 Hours

 ConditionsComfort  
Time TempWeatherWind HumidityBarometerVisibility
10:20 PM
Fri, Feb 5
37 °FPassing clouds.13 mph93%30.30 "HgN/A
9:50 PM37 °FPassing clouds.10 mph93%30.30 "HgN/A
9:20 PM37 °FPassing clouds.10 mph93%30.30 "HgN/A
8:50 PM37 °FPassing clouds.9 mph93%30.33 "HgN/A
8:20 PM39 °FPassing clouds.10 mph87%30.33 "HgN/A
7:50 PM39 °FPassing clouds.9 mph87%30.33 "HgN/A
7:20 PM39 °FPassing clouds.8 mph87%30.33 "HgN/A
6:50 PM39 °FPassing clouds.9 mph87%30.33 "HgN/A
6:20 PM39 °FPassing clouds.8 mph87%30.33 "HgN/A
5:50 PM39 °FPassing clouds.7 mph87%30.33 "HgN/A
5:20 PM39 °FPassing clouds.6 mph81%30.33 "HgN/A
4:50 PM39 °FPartly sunny.7 mph87%30.33 "HgN/A
4:20 PM39 °FPartly sunny.5 mph87%30.33 "HgN/A
3:50 PM41 °FPartly sunny.7 mph87%30.33 "HgN/A
3:20 PM39 °FPartly sunny.7 mph87%30.33 "HgN/A
2:50 PM39 °FBroken clouds.8 mph87%30.33 "HgN/A
2:20 PM41 °FScattered clouds.3 mph87%30.33 "HgN/A
1:50 PM39 °FPartly sunny.2 mph87%30.36 "HgN/A
1:20 PM37 °FBroken clouds.3 mph93%30.36 "HgN/A
12:50 PM37 °FPartly sunny.3 mph87%30.36 "HgN/A
12:20 PM36 °FBroken clouds.3 mph93%30.39 "HgN/A
11:50 AM36 °FPartly sunny.3 mph93%30.39 "Hg6 mi
11:20 AM34 °FLight rain. Partly sunny.2 mph100%30.39 "Hg4 mi
10:50 AM36 °FLight rain. Partly sunny.2 mph93%30.42 "Hg4 mi
10:20 AM34 °FLight rain. Partly sunny.2 mph100%30.39 "Hg3 mi
9:50 AM34 °FLight rain. Broken clouds.1 mph100%30.39 "Hg4 mi
9:20 AM36 °FDrizzle. Broken clouds.1 mph87%30.39 "Hg4 mi
8:50 AM36 °FDrizzle. Broken clouds.5 mph87%30.39 "HgN/A
8:20 AM36 °FBroken clouds.5 mph87%30.39 "HgN/A
7:50 AM36 °FBroken clouds.3 mph87%30.36 "HgN/A
7:20 AM36 °FPartly cloudy.5 mph87%30.36 "HgN/A
6:50 AM36 °FPassing clouds.5 mph93%30.36 "HgN/A
6:20 AM36 °FPassing clouds.6 mph93%30.33 "HgN/A
5:50 AM36 °FLight rain. Partly cloudy.13 mph87%30.33 "HgN/A
5:20 AM36 °FSprinkles. Partly cloudy.7 mph93%30.30 "HgN/A
4:50 AM36 °FPassing clouds.3 mph93%30.30 "HgN/A
4:20 AM36 °FPassing clouds.2 mph93%30.27 "HgN/A
3:50 AM34 °FSprinkles. Passing clouds.6 mph100%30.27 "HgN/A
3:20 AM34 °FLight rain. Partly cloudy.14 mph100%30.27 "Hg6 mi
2:50 AM36 °FSprinkles. Passing clouds.15 mph93%30.24 "HgN/A
2:20 AM39 °FPassing clouds.14 mph81%30.21 "HgN/A
1:50 AM39 °FSprinkles. Partly cloudy.17 mph81%30.21 "HgN/A
12:50 AM39 °FPartly cloudy.17 mph87%30.18 "HgN/A
12:20 AM39 °FLight rain. Partly cloudy.17 mph87%30.18 "HgN/A
11:50 PM
Thu, Feb 4
39 °FSprinkles. Passing clouds.18 mph87%30.15 "HgN/A
11:20 PM39 °FSprinkles. Partly cloudy.20 mph87%30.15 "HgN/A
Weather by CustomWeather, © 2016

See weather overviewHow to use our weather pages